Regional Weather Roundup
Issued by NWS Burlington, VT

Current Version | Previous Version | Graphics & Text | Print | Product List | Glossary Off
Versions: 1 2 3 4 5 6 7 8 9 10 11 12 13 14 15 16 17 18 19 20 21 22 23 24 25 26 27 28 29 30 31 32 33 34 35 36 37 38 39 40 41 42 43 44 45 46 47 48 49 50

000
ASUS41 KBTV 291710
RWRBTV
VERMONT REGIONAL WEATHER ROUNDUP
NATIONAL WEATHER SERVICE BURLINGTON VT
100 PM EDT FRI APR 29 2016

NOTE: "FAIR" INDICATES FEW OR NO CLOUDS BELOW 12,000 FEET WITH NO
SIGNIFICANT WEATHER AND/OR OBSTRUCTIONS TO VISIBILITY.

* THESE REPORTS ARE NOT UNDER NWS QUALITY CONTROL AND/OR DO NOT
  REPORT WEATHER SUCH AS PRECIPITATION AND FOG.

VTZ001>019-291800-
_____VERMONT_____


CITY           SKY/WX    TMP DP  RH WIND       PRES   REMARKS
BURLINGTON     FAIR      53  24  32 NW7       30.11F
MONTPELIER     FAIR      49  24  37 CALM      30.13F
MORRISVILLE    FAIR      51  20  29 CALM      30.11F
ST. JOHNSBURY*   N/A     51  26  37 MISG      30.09F
LYNDONVILLE*   FAIR      49  24  37 SE5       30.11F
MIDDLEBURY*    FAIR      54  26  33 SW3       30.09F
RUTLAND*       FAIR      54  28  37 NE7       30.08F
SPRINGFIELD    FAIR      53  28  38 E7        30.11F
HIGHGATE*      FAIR      49  19  30 N6        30.14F
NEWPORT*       FAIR      49  25  39 SE8       30.10F
BENNINGTON     FAIR      57  33  40 VRB3      30.07F
SUTTON*          N/A     50 N/A N/A MISG        N/A

_____LAKE CHAMPLAIN_____


CITY           SKY/WX    TMP DP  RH WIND       PRES   REMARKS
COLCHESTER RF*   N/A     41  28  60 N9          N/A
DIAMOND ISL*     N/A     45  25  45 N7          N/A

$$

NYZ007-026>031-035-052-083-087-291800-
_____NORTHERN NEW YORK_____


CITY           SKY/WX    TMP DP  RH WIND       PRES   REMARKS
PLATTSBURGH    SUNNY     48  20  32 MISG      30.13F
SARANAC LAKE   SUNNY     53  16  23 VRB5      30.03F
MASSENA        SUNNY     51  17  26 NE14      30.14F
OGDENSBURG*    SUNNY     54  23  30 N14G21    30.11F
POTSDAM*       SUNNY     27   3  36 N10       30.09  WCI  17
WATERTOWN      SUNNY     56  27  32 VRB5      30.06F
FT DRUM        SUNNY     55  25  31 N7        30.05F
ALBANY         PTSUNNY   57  35  43 S9        30.09F
GLENS FALLS    SUNNY     55  32  41 CALM      30.08F

$$
NHZ002-005-011-291800-
_____NEW HAMPSHIRE_____


CITY           SKY/WX    TMP DP  RH WIND       PRES   REMARKS
LEBANON        SUNNY     54  27  35 SW9       30.11F
KEENE          SUNNY     55  30  38 W6        30.11F
MT WASHINGTON  MOSUNNY   25  18  74 W18G25      N/A  WCI  11
PLYMOUTH       FAIR      50  25  37 CALM      30.13F
WHITEFIELD     SUNNY     53  23  31 W12       30.09F

$$

_____REGIONAL QUEBEC LOCATIONS_____


CITY           SKY/WX    TMP DP  RH WIND       PRES   REMARKS
MONTREAL       PTSUNNY   48  16  27 N9        30.16F
QUEBEC CITY    MOSUNNY   45   9  23 VRB5      30.15F
SHERBROOKE     SUNNY     48  14  25 VRB7      30.11F

_____REGIONAL ONTARIO LOCATIONS_____


CITY           SKY/WX    TMP DP  RH WIND       PRES   REMARKS
OTTAWA         PTSUNNY   50  18  27 NE9       30.14F

______KEY______
VSB  - VISIBILITY IN MILES
WCI  - WIND CHILL INDEX
HX   - HEAT INDEX
$$
NNNN




USA.gov is the U.S. government's official web portal to all federal, state and local government web resources and services.